Погода в Кирсе

Погода в Кирсе : погода сейчас, прогноз погоды и архив. Всё, что Вы хотите узнать о погоде в Кирсе!

Поиск расширенной информации на нашем сайте:

Другие новости

Новости СМИ2

Главная страница сайта

Новости сайта

03.07.2017

Напоминаем, что на нашем специализированном сайте Метеоцентр.Азия вы можете получить высокодетализированные автоматические прогнозы погоды по пунктам России, СНГ и мира в авиационном формате (включающие направление и скорость ветра, видимость, явления погоды, количество и форму облачности, нижнюю и верхнюю границу облачности).

Рекомендуем: Информация кухня на заказ уфа здесь.

Погода в Кирсе - сегодня

Время (UTC), дата Ветер
(°,м/с) 
Видим.   Явления Облачность Т
(°С)
Тd
(°С)
f(%) Тe
(°С)
Pmin
(гПа)
dP
(гПа)
Po
(мм)
O2
(г/м3)
Тmin Tmax R s Состояние
почвы
03 17.10.17 180 (Ю) 3-5{05}  4000 м  дымка  10/10 300 м кучево-дожд. 
[Cb cap]
+7.5 +6.2 91 +7  1006.1  -1.4  739  289  +6.8      влажная 
06 17.10.17 160 (Ю) 3-6{08}  4100 м  слаб. ливневой дождь  10/10 300 м кучево-дожд. 
[Cb cap]
+7.4 +6.5 94 +7  1004.1  -2  737  288           
09 17.10.17 190 (Ю) 4-6{09}  4700 м  дымка{ливн. осадки}  10/10 300 м кучево-дожд. 
[Cb cap]
+7.8 +7 95 +7  1001.6  -2.4  736  287           
12 17.10.17 220 (ЮЗ) 3-6{06}  20000 м  {ливн. осадки}  10/10 300 м кучево-дожд. 
[Cb cap]
+7.4 +5.8 90 +7  1000.6  -1  735  287           
15 17.10.17 230 (ЮЗ) 3-7{10}  10 км  слаб. ливневой дождь  10/10 300 м кучево-дожд. 
[Cb cap]
+4.6 +3.6 93 +3  1000.7  -0.1  735  291    +7.9     
18 17.10.17 250 (З) 3-5{08}  20000 м  в посл. час ливневой дождь  10/10 300 м кучево-дожд. 
[Cb cap]
+3.6 +2.9 95 +2  1000.9  0.1  735  292           
21 17.10.17 210 (ЮЗ) 3-5{05}  20000 м  в посл. час ливневой дождь  10/10 300 м кучево-дожд. 
[Cb cap]
+3.7 +3 95 +2  1000.2  -0.6  735  292           
00 18.10.17 220 (ЮЗ) 4-6{08}  20000 м  в посл. час ливневой дождь  6/6 300 м кучево-дожд. 
[Cb cap]
+3.9 +3.2 95 +2  1000  -0.2  735  291           
03 18.10.17 200 (Ю) 4-7{08}  10 км  слаб. ливневой дождь  10/10 300 м кучево-дожд. 
[Cb cap]
+4 +3 93 +2  999.8  -0.2  734  291  +3.5      влажная 
06 18.10.17 200 (Ю) 4-7{08}  20000 м  {ливн. осадки}  10/10 300 м кучево-дожд. 
[Cb cap]
+4.4 +0.2 74 +3  1000.3  0.5  735  291           
09 18.10.17 200 (Ю) 4-7{09}  20000 м  в посл. час ливневой дождь  8/5 300 м кучево-дожд., верхняя 
[Cb cap|Ci fib]
+6 +2.6 79 +4  999.7  -0.5  734  289           
12 18.10.17 200 (Ю) 3-6{08}  20000 м  {ливн. осадки}  10/8 300 м кучево-дожд., средняя 
[Cb cap|Ac As]
+5.6   998.9  -0.8  734             
15 18.10.17 180 (Ю) 3-5{06}  10 км  слаб. ливневой дождь  10/10 300 м кучево-дожд. 
[Cb cap]
+5.4 +2.2 80 +4  998.2  -0.7  733  289    +6  0.6     
18 18.10.17 150 (ЮВ) 2-3{08}  10 км  слаб. ливневой дождь  10/10 300 м кучево-дожд. 
[Cb cap]
+3.6 +2.1 90 +3  997  -1.3  732  291           
21 18.10.17 160 (Ю) 3-5{05}  4000 м  слаб. морось{ливн. осадки}  10/10 300 м 
[St]
+4.2 +3.5 95 +3  994.6  -2.3  731  289           
00 19.10.17 160 (Ю) 3-6{06}  4000 м  слаб. ливневой дождь{морось}  10/10 300 м кучево-дожд. 
[Cb cap]
+4.6 +4.1 97 +3  991.8  -2.7  729  288           
03 19.10.17 160 (Ю) 5-8{10}  2000 м  ливневой дождь  10/10 300 м кучево-дожд. 
[Cb cap]
+6.6 +5.7 94 +5  987.4  -4.1  726  284  +3.5      мокрая 
06 19.10.17 190 (Ю) 2{09}  6000 м  слаб. ливневой дождь  10/10 300 м кучево-дожд. 
[Cb cap]
+6.8 +5.9 94 +7  986.9  -0.5  725  284  +6.3         
09 19.10.17 250 (З) 4-9{12}  4500 м  слаб. ливневой дождь со снегом  10/10 300 м кучево-дожд. 
[Cb cap]
+1.5 +0.7 94 -1  990.6  3.2  728  291           
12 19.10.17 240 (ЮЗ) 4{12}  4800 м  слаб. ливневой дождь  10/10 300 м кучево-дожд. 
[Cb cap]
+2.3 +1.8 96 994.8  4.1  731  292           
15 19.10.17 240 (ЮЗ) 4-8{10}  4000 м  слаб. ливневой дождь  10/10 300 м кучево-дожд. 
[Cb cap]
+2.4 +1.6 94 997.4  2.7  733  292    +6.8  12     
18 19.10.17 250 (З) 3-6{09}  10 км  слаб. ливневой дождь  10/10 300 м кучево-дожд. 
[Cb cap]
+1.6 +0.8 94 998.8  1.2  734  294           
21 19.10.17 250 (З) 3-6{08}  4000 м  слаб. ливневой дождь  10/10 300 м кучево-дожд. 
[Cb cap]
+1.1 +0.6 96 1000.2  1.4  735  295           
00 20.10.17 260 (З) 5-9{09}  4000 м  слаб. ливневой дождь  10/10 300 м кучево-дожд. 
[Cb cap]
+1.1 +0.6 96 -2  1002.2  736  295           
03 20.10.17 280 (З) 4-9{11}  4000 м  слаб. ливневой снег  10/10 300 м кучево-дожд. 
[Cb cap]
+0 -0.8 94 -2  1005.3  2.8  738  298  +0    <0.5  равномерный
мокрый или
старый снег
100% 
Время (UTC), дата Ветер
(°,м/с) 
Видим.   Явления Облачность Т
(°С)
Тd
(°С)
f(%) Тe
(°С)
Pmin
(гПа)
dP
(гПа)
Po
(мм)
O2
(г/м3)
Тmin Tmax R s Состояние
почвы

Для получения пояснительной информации подведите курсор к названию столбца.

ПОГОДА в Кирсе - архив

Всё, что Вы хотите узнать о погоде в Кирсе - удобно и подробно!

Выберите нужную дату (начиная с 1 января 2015* года) и нажмите кнопку "Найти".
Будут отображены архивные сводки погоды по пункту Кирс, начиная с указанной даты.


Отображать данные в формате CSV (для использования в таблицах Excel)


Внимание! Наш архив погоды предназначен исключительно для личного некоммерческого использования в познавательных целях. Если Вам необходимы официальные справки о состоянии погоды (для производственных, юридических, коммерческих и т.п. целей), обращайтесь в органы Росгидромета.

*Примечание: данная дата относится к архиву по метеостанциям СССР (Россия, СНГ, Балтия).
Архив по метеостанциям Зарубежной Европы и Азии (кроме Китая) хранится 10 дней, по другим регионам земного шара (Китай, Африка, Америка, Австралия, Океания) - 1 день.

Кирс - район местоположения метеостанции


Название, широта, долгота, высота метеостанции:
Кирс 59.4°ш. 52.2°д. 169 м над ур. моря [Российская Федерация]

Дополнительная информация

В oтличие oт бoльшинства пoгoдных сайтoв мы публикуем пoдрoбную метеoинфoрмацию в детальнoм прoфессиoнальнoм фoрмате.

Характеристики температуры и влажнoсти вoздуха измеряются на высoте 2 м в тени вдали oт зданий и деревьев.
Скoрoсть ветра измеряется на высoте 10 м (на урoвне рoста челoвека скoрoсть ветра ниже в 1.5-2 раза). Если метеoстанция нахoдится в гoрoде или в лесу, тo скoрoсть ветра занижена на 2-4 м/с пo сравнению с oткрытым местoм. Скoрoсть ветра над акватoриями крупных рек и oзёр, а также на вершинах хoлмoв на 2-5 м/с выше, чем в oбычных услoвиях.
Атмoсфернoе давление в разных тoчках местнoсти мoжет значительнo oтличаться oт давления на метеoстанции, в зависимoсти oт услoвий рельефа (при пoдъёме на 10 м давление пoнижается примернo на 1 мм рт.ст.).